Regional Weather Roundup
Issued by NWS

Home | Current Version | Previous Version | Text Only | Print | Product List | Glossary On
Versions: 1 2 3 4 5 6 7 8 9 10 11 12 13 14 15 16 17 18 19 20 21 22 23 24 25 26 27 28 29 30 31 32 33 34 35 36 37 38 39 40 41 42 43 44 45 46 47 48 49 50
000
ASUS43 KTOP 192008
RWRKS

WEATHER ROUNDUP FOR KANSAS
NATIONAL WEATHER SERVICE GOODLAND KS
300 PM CDT SAT MAY 19 2018

NOTE:  "FAIR" INDICATES FEW OR NO CLOUDS BELOW 12,000 FEET WITH NO
SIGNIFICANT WEATHER AND/OR OBSTRUCTIONS TO VISIBILITY.

KSZ001>006-013>018-027>032-041>047-192100-
NORTHWEST KANSAS

CITY           SKY/WX    TMP DP  RH WIND       PRES   REMARKS
GOODLAND       LGT RAIN  56  48  74 NW38G51   29.94S
HAYS           MOSUNNY   70  57  63 CALM      29.91F
HILL CITY      CLOUDY    71  59  65 N14       29.90F
RUSSELL        SUNNY     75  58  55 NW9       29.88F
$$

KSZ061>065-074>080-084>089-192100-
SOUTHWEST KANSAS

CITY           SKY/WX    TMP DP  RH WIND       PRES   REMARKS
DODGE CITY     SUNNY     75  52  44 VRB3      29.92F
ELKHART        SUNNY     76  53  44 NE9       29.96F
GARDEN CITY    MOSUNNY   69  54  58 NW12      29.96R
GREAT BEND     SUNNY     74  59  59 N7        29.90F
LIBERAL          N/A     76  52  43 N12G21    29.95S
PRATT          MOSUNNY   76  56  49 N12       29.91F
$$

KSZ066>073-081>083-090>101-192100-
SOUTHEAST KANSAS

CITY           SKY/WX    TMP DP  RH WIND       PRES   REMARKS
CHANUTE        CLOUDY    79  70  74 SE8       29.86S
COFFEYVILLE    PTSUNNY   85  70  60 S13       29.82F
HUTCHINSON     PTSUNNY   80  62  54 NW9       29.86F
MEDICINE LODGE   N/A     81  62  52 N14         N/A
NEWTON         SUNNY     81  62  52 N9G16     29.85F
PARSONS        MOSUNNY   83  71  67 S10       29.84F
WICHITA INTL   PTSUNNY   77  68  73 SW6       29.87S
WICHITA JABRA  PTSUNNY   77  68  73 SW8       29.87F
WICHITA MCCONL PTSUNNY   77  66  69 SW8       29.87R
WINFIELD       CLOUDY    76  70  82 S5        29.87R
$$

KSZ007>012-019>026-033>040-048>060-102>105-192100-
NORTHEAST KANSAS

CITY           SKY/WX    TMP DP  RH WIND       PRES   REMARKS
CONCORDIA      CLOUDY    76  60  57 W7        29.89F
EMPORIA        CLOUDY    80  69  69 S8        29.83F
LAWRENCE       MOSUNNY   80  67  64 VRB6      29.86F
MANHATTAN      PTSUNNY   81  62  52 NE7       29.87F
MARYSVILLE     MOSUNNY   77  61  57 CALM      29.88F
OLATHE IND     CLOUDY    78  66  66 W5        29.88R
OLATHE EXE     CLOUDY    76  64  66 S3        29.88R
SALINA         PTSUNNY   80  62  54 NW13G18   29.88F
TOPEKA BILLARD PTSUNNY   80  65  59 VRB5      29.86F
TOPEKA FORBES  PTSUNNY   79  66  64 N9        29.86F
$$




USA.gov is the U.S. government's official web portal to all federal, state and local government web resources and services.